owner,sensor,date,latitude,longitude,vertical_datum,sea_water_practical_salinity,qcFlag 
COMPS,ioos:station:USF.COMPS:NFB:1,2009-06-01T00:00:00Z,25.0840,-81.0960,1.0,25.364,1111122 
COMPS,ioos:station:USF.COMPS:NFB:1,2009-06-01T00:06:00Z,25.0840,-81.0960,1.0,25.423,1111122 
COMPS,ioos:station:USF.COMPS:NFB:1,2009-06-01T00:12:00Z,25.0840,-81.0960,1.0,25.434,1111122 
COMPS,ioos:station:USF.COMPS:NFB:1,2009-06-01T00:18:00Z,25.0840,-81.0960,1.0,25.504,1111122 
COMPS,ioos:station:USF.COMPS:NFB:1,2009-06-01T00:24:00Z,25.0840,-81.0960,1.0,25.573,1111122 
COMPS,ioos:station:USF.COMPS:NFB:1,2009-06-01T00:30:00Z,25.0840,-81.0960,1.0,25.649,1111122 
COMPS,ioos:station:USF.COMPS:NFB:1,2009-06-01T00:36:00Z,25.0840,-81.0960,1.0,25.524,1111122 
COMPS,ioos:station:USF.COMPS:NFB:1,2009-06-01T00:42:00Z,25.0840,-81.0960,1.0,25.53,1111122 
COMPS,ioos:station:USF.COMPS:NFB:1,2009-06-01T00:48:00Z,25.0840,-81.0960,1.0,25.61,1111122 
COMPS,ioos:station:USF.COMPS:NFB:1,2009-06-01T00:54:00Z,25.0840,-81.0960,1.0,25.615,1111122 
COMPS,ioos:station:USF.COMPS:NFB:1,2009-06-01T01:00:00Z,25.0840,-81.0960,1.0,25.815,1111122 
COMPS,ioos:station:USF.COMPS:NFB:1,2009-06-01T01:06:00Z,25.0840,-81.0960,1.0,26.14,1111122 
COMPS,ioos:station:USF.COMPS:NFB:1,2009-06-01T01:12:00Z,25.0840,-81.0960,1.0,25.945,1111122 
COMPS,ioos:station:USF.COMPS:NFB:1,2009-06-01T01:18:00Z,25.0840,-81.0960,1.0,25.766,1111122 
COMPS,ioos:station:USF.COMPS:NFB:1,2009-06-01T01:24:00Z,25.0840,-81.0960,1.0,25.766,1111122 
COMPS,ioos:station:USF.COMPS:NFB:1,2009-06-01T01:30:00Z,25.0840,-81.0960,1.0,25.701,1111122 
COMPS,ioos:station:USF.COMPS:NFB:1,2009-06-01T01:36:00Z,25.0840,-81.0960,1.0,26.167,1111122 
COMPS,ioos:station:USF.COMPS:NFB:1,2009-06-01T01:42:00Z,25.0840,-81.0960,1.0,26.297,1111122 
COMPS,ioos:station:USF.COMPS:NFB:1,2009-06-01T01:48:00Z,25.0840,-81.0960,1.0,26.378,1111122 
COMPS,ioos:station:USF.COMPS:NFB:1,2009-06-01T01:54:00Z,25.0840,-81.0960,1.0,26.204,1111122 
COMPS,ioos:station:USF.COMPS:NFB:1,2009-06-01T02:00:00Z,25.0840,-81.0960,1.0,26.335,1111122 
COMPS,ioos:station:USF.COMPS:NFB:1,2009-06-01T02:06:00Z,25.0840,-81.0960,1.0,26.346,1111122 
COMPS,ioos:station:USF.COMPS:NFB:1,2009-06-01T02:12:00Z,25.0840,-81.0960,1.0,26.085,1111122 
COMPS,ioos:station:USF.COMPS:NFB:1,2009-06-01T02:18:00Z,25.0840,-81.0960,1.0,25.695,1111122 
COMPS,ioos:station:USF.COMPS:NFB:1,2009-06-01T02:24:00Z,25.0840,-81.0960,1.0,25.57,1111122 
COMPS,ioos:station:USF.COMPS:NFB:1,2009-06-01T02:30:00Z,25.0840,-81.0960,1.0,26.356,1111122 
COMPS,ioos:station:USF.COMPS:NFB:1,2009-06-01T02:36:00Z,25.0840,-81.0960,1.0,26.362,1111122 
COMPS,ioos:station:USF.COMPS:NFB:1,2009-06-01T02:42:00Z,25.0840,-81.0960,1.0,25.987,1111122 
COMPS,ioos:station:USF.COMPS:NFB:1,2009-06-01T02:48:00Z,25.0840,-81.0960,1.0,25.737,1111122 
COMPS,ioos:station:USF.COMPS:NFB:1,2009-06-01T02:54:00Z,25.0840,-81.0960,1.0,26.237,1111122 
COMPS,ioos:station:USF.COMPS:NFB:1,2009-06-01T03:00:00Z,25.0840,-81.0960,1.0,26.117,1111122 
COMPS,ioos:station:USF.COMPS:NFB:1,2009-06-01T03:06:00Z,25.0840,-81.0960,1.0,26.003,1111122 
COMPS,ioos:station:USF.COMPS:NFB:1,2009-06-01T03:12:00Z,25.0840,-81.0960,1.0,26.531,1111122 
COMPS,ioos:station:USF.COMPS:NFB:1,2009-06-01T03:18:00Z,25.0840,-81.0960,1.0,26.531,1111122 
COMPS,ioos:station:USF.COMPS:NFB:1,2009-06-01T03:24:00Z,25.0840,-81.0960,1.0,26.465,1111122 
COMPS,ioos:station:USF.COMPS:NFB:1,2009-06-01T03:30:00Z,25.0840,-81.0960,1.0,27.175,1111122 
COMPS,ioos:station:USF.COMPS:NFB:1,2009-06-01T03:36:00Z,25.0840,-81.0960,1.0,26.384,1111122 
COMPS,ioos:station:USF.COMPS:NFB:1,2009-06-01T03:42:00Z,25.0840,-81.0960,1.0,26.242,1111122 
COMPS,ioos:station:USF.COMPS:NFB:1,2009-06-01T03:48:00Z,25.0840,-81.0960,1.0,25.971,1111122 
COMPS,ioos:station:USF.COMPS:NFB:1,2009-06-01T03:54:00Z,25.0840,-81.0960,1.0,26.09,1111122 
COMPS,ioos:station:USF.COMPS:NFB:1,2009-06-01T04:06:00Z,25.0840,-81.0960,1.0,25.684,1111122 
COMPS,ioos:station:USF.COMPS:NFB:1,2009-06-01T04:12:00Z,25.0840,-81.0960,1.0,25.998,1111122 
COMPS,ioos:station:USF.COMPS:NFB:1,2009-06-01T04:18:00Z,25.0840,-81.0960,1.0,26.053,1111122 
COMPS,ioos:station:USF.COMPS:NFB:1,2009-06-01T04:24:00Z,25.0840,-81.0960,1.0,26.248,1111122 
COMPS,ioos:station:USF.COMPS:NFB:1,2009-06-01T04:30:00Z,25.0840,-81.0960,1.0,26.118,1111122 
COMPS,ioos:station:USF.COMPS:NFB:1,2009-06-01T04:36:00Z,25.0840,-81.0960,1.0,25.988,1111122 
COMPS,ioos:station:USF.COMPS:NFB:1,2009-06-01T04:42:00Z,25.0840,-81.0960,1.0,26.053,1111122 
COMPS,ioos:station:USF.COMPS:NFB:1,2009-06-01T04:48:00Z,25.0840,-81.0960,1.0,25.993,1111122 
COMPS,ioos:station:USF.COMPS:NFB:1,2009-06-01T04:54:00Z,25.0840,-81.0960,1.0,26.514,1111122 
COMPS,ioos:station:USF.COMPS:NFB:1,2009-06-01T05:00:00Z,25.0840,-81.0960,1.0,26.063,1111122 
COMPS,ioos:station:USF.COMPS:NFB:1,2009-06-01T05:06:00Z,25.0840,-81.0960,1.0,25.868,1111122 
COMPS,ioos:station:USF.COMPS:NFB:1,2009-06-01T05:12:00Z,25.0840,-81.0960,1.0,26.27,1111122 
COMPS,ioos:station:USF.COMPS:NFB:1,2009-06-01T05:18:00Z,25.0840,-81.0960,1.0,26.416,1111122 
COMPS,ioos:station:USF.COMPS:NFB:1,2009-06-01T05:24:00Z,25.0840,-81.0960,1.0,25.911,1111122 
COMPS,ioos:station:USF.COMPS:NFB:1,2009-06-01T05:30:00Z,25.0840,-81.0960,1.0,25.862,1111122 
COMPS,ioos:station:USF.COMPS:NFB:1,2009-06-01T05:36:00Z,25.0840,-81.0960,1.0,25.547,1111122 
COMPS,ioos:station:USF.COMPS:NFB:1,2009-06-01T05:42:00Z,25.0840,-81.0960,1.0,25.558,1111122 
COMPS,ioos:station:USF.COMPS:NFB:1,2009-06-01T05:48:00Z,25.0840,-81.0960,1.0,25.829,1111122 
COMPS,ioos:station:USF.COMPS:NFB:1,2009-06-01T05:54:00Z,25.0840,-81.0960,1.0,25.254,1111122 
COMPS,ioos:station:USF.COMPS:NFB:1,2009-06-01T06:00:00Z,25.0840,-81.0960,1.0,25.524,1111122 
COMPS,ioos:station:USF.COMPS:NFB:1,2009-06-01T06:06:00Z,25.0840,-81.0960,1.0,25.339,1111122 
COMPS,ioos:station:USF.COMPS:NFB:1,2009-06-01T06:12:00Z,25.0840,-81.0960,1.0,25.345,1111122 
COMPS,ioos:station:USF.COMPS:NFB:1,2009-06-01T06:18:00Z,25.0840,-81.0960,1.0,25.09,1111122 
COMPS,ioos:station:USF.COMPS:NFB:1,2009-06-01T06:24:00Z,25.0840,-81.0960,1.0,25.03,1111122 
COMPS,ioos:station:USF.COMPS:NFB:1,2009-06-01T06:30:00Z,25.0840,-81.0960,1.0,24.975,1111122 
COMPS,ioos:station:USF.COMPS:NFB:1,2009-06-01T06:36:00Z,25.0840,-81.0960,1.0,24.78,1111122 
COMPS,ioos:station:USF.COMPS:NFB:1,2009-06-01T06:42:00Z,25.0840,-81.0960,1.0,24.78,1111122 
COMPS,ioos:station:USF.COMPS:NFB:1,2009-06-01T06:48:00Z,25.0840,-81.0960,1.0,24.85,1111122 
COMPS,ioos:station:USF.COMPS:NFB:1,2009-06-01T06:54:00Z,25.0840,-81.0960,1.0,24.85,1111122 
COMPS,ioos:station:USF.COMPS:NFB:1,2009-06-01T07:00:00Z,25.0840,-81.0960,1.0,25.436,1111122 
COMPS,ioos:station:USF.COMPS:NFB:1,2009-06-01T07:06:00Z,25.0840,-81.0960,1.0,24.78,1111122 
COMPS,ioos:station:USF.COMPS:NFB:1,2009-06-01T07:12:00Z,25.0840,-81.0960,1.0,24.775,1111122 
COMPS,ioos:station:USF.COMPS:NFB:1,2009-06-01T07:18:00Z,25.0840,-81.0960,1.0,24.695,1111122 
COMPS,ioos:station:USF.COMPS:NFB:1,2009-06-01T07:24:00Z,25.0840,-81.0960,1.0,24.82,1111122 
COMPS,ioos:station:USF.COMPS:NFB:1,2009-06-01T07:30:00Z,25.0840,-81.0960,1.0,25.937,1111122 
COMPS,ioos:station:USF.COMPS:NFB:1,2009-06-01T07:36:00Z,25.0840,-81.0960,1.0,25.545,1111122 
COMPS,ioos:station:USF.COMPS:NFB:1,2009-06-01T07:42:00Z,25.0840,-81.0960,1.0,25.595,1111122 
COMPS,ioos:station:USF.COMPS:NFB:1,2009-06-01T07:48:00Z,25.0840,-81.0960,1.0,25.454,1111122 
COMPS,ioos:station:USF.COMPS:NFB:1,2009-06-01T07:54:00Z,25.0840,-81.0960,1.0,25.524,1111122 
COMPS,ioos:station:USF.COMPS:NFB:1,2009-06-01T08:00:00Z,25.0840,-81.0960,1.0,25.649,1111122 
COMPS,ioos:station:USF.COMPS:NFB:1,2009-06-01T08:06:00Z,25.0840,-81.0960,1.0,25.324,1111122 
COMPS,ioos:station:USF.COMPS:NFB:1,2009-06-01T08:12:00Z,25.0840,-81.0960,1.0,25.269,1111122 
COMPS,ioos:station:USF.COMPS:NFB:1,2009-06-01T08:18:00Z,25.0840,-81.0960,1.0,25.937,1111122 
COMPS,ioos:station:USF.COMPS:NFB:1,2009-06-01T08:24:00Z,25.0840,-81.0960,1.0,25.485,1111122 
COMPS,ioos:station:USF.COMPS:NFB:1,2009-06-01T08:30:00Z,25.0840,-81.0960,1.0,25.295,1111122 
COMPS,ioos:station:USF.COMPS:NFB:1,2009-06-01T08:36:00Z,25.0840,-81.0960,1.0,25.501,1111122 
COMPS,ioos:station:USF.COMPS:NFB:1,2009-06-01T08:42:00Z,25.0840,-81.0960,1.0,25.316,1111122 
COMPS,ioos:station:USF.COMPS:NFB:1,2009-06-01T08:48:00Z,25.0840,-81.0960,1.0,25.849,1111122 
COMPS,ioos:station:USF.COMPS:NFB:1,2009-06-01T08:54:00Z,25.0840,-81.0960,1.0,25.533,1111122 
COMPS,ioos:station:USF.COMPS:NFB:1,2009-06-01T09:00:00Z,25.0840,-81.0960,1.0,25.494,1111122 
COMPS,ioos:station:USF.COMPS:NFB:1,2009-06-01T09:06:00Z,25.0840,-81.0960,1.0,25.788,1111122 
COMPS,ioos:station:USF.COMPS:NFB:1,2009-06-01T09:12:00Z,25.0840,-81.0960,1.0,25.481,1111122 
COMPS,ioos:station:USF.COMPS:NFB:1,2009-06-01T09:18:00Z,25.0840,-81.0960,1.0,25.382,1111122 
COMPS,ioos:station:USF.COMPS:NFB:1,2009-06-01T09:24:00Z,25.0840,-81.0960,1.0,25.448,1111122 
COMPS,ioos:station:USF.COMPS:NFB:1,2009-06-01T09:30:00Z,25.0840,-81.0960,1.0,25.267,1111122 
COMPS,ioos:station:USF.COMPS:NFB:1,2009-06-01T09:36:00Z,25.0840,-81.0960,1.0,25.518,1111122 
COMPS,ioos:station:USF.COMPS:NFB:1,2009-06-01T09:42:00Z,25.0840,-81.0960,1.0,25.05,1111122 
COMPS,ioos:station:USF.COMPS:NFB:1,2009-06-01T09:48:00Z,25.0840,-81.0960,1.0,25.175,1111122 
COMPS,ioos:station:USF.COMPS:NFB:1,2009-06-01T09:54:00Z,25.0840,-81.0960,1.0,25.105,1111122 
COMPS,ioos:station:USF.COMPS:NFB:1,2009-06-01T10:00:00Z,25.0840,-81.0960,1.0,25.356,1111122 
COMPS,ioos:station:USF.COMPS:NFB:1,2009-06-01T10:06:00Z,25.0840,-81.0960,1.0,25.149,1111122 
COMPS,ioos:station:USF.COMPS:NFB:1,2009-06-01T10:12:00Z,25.0840,-81.0960,1.0,25.139,1111122 
COMPS,ioos:station:USF.COMPS:NFB:1,2009-06-01T10:18:00Z,25.0840,-81.0960,1.0,25.39,1111122 
COMPS,ioos:station:USF.COMPS:NFB:1,2009-06-01T10:24:00Z,25.0840,-81.0960,1.0,25.324,1111122 
COMPS,ioos:station:USF.COMPS:NFB:1,2009-06-01T10:30:00Z,25.0840,-81.0960,1.0,25.123,1111122 
COMPS,ioos:station:USF.COMPS:NFB:1,2009-06-01T10:36:00Z,25.0840,-81.0960,1.0,25.053,1111122 
COMPS,ioos:station:USF.COMPS:NFB:1,2009-06-01T10:42:00Z,25.0840,-81.0960,1.0,25.113,1111122 
COMPS,ioos:station:USF.COMPS:NFB:1,2009-06-01T10:48:00Z,25.0840,-81.0960,1.0,25.113,1111122 
COMPS,ioos:station:USF.COMPS:NFB:1,2009-06-01T10:54:00Z,25.0840,-81.0960,1.0,25.369,1111122 
COMPS,ioos:station:USF.COMPS:NFB:1,2009-06-01T11:00:00Z,25.0840,-81.0960,1.0,25.63,1111122 
COMPS,ioos:station:USF.COMPS:NFB:1,2009-06-01T11:06:00Z,25.0840,-81.0960,1.0,25.826,1111122 
COMPS,ioos:station:USF.COMPS:NFB:1,2009-06-01T11:12:00Z,25.0840,-81.0960,1.0,25.434,1111122 
COMPS,ioos:station:USF.COMPS:NFB:1,2009-06-01T11:18:00Z,25.0840,-81.0960,1.0,25.243,1111122 
COMPS,ioos:station:USF.COMPS:NFB:1,2009-06-01T11:24:00Z,25.0840,-81.0960,1.0,25.243,1111122 
COMPS,ioos:station:USF.COMPS:NFB:1,2009-06-01T11:30:00Z,25.0840,-81.0960,1.0,25.892,1111122 
COMPS,ioos:station:USF.COMPS:NFB:1,2009-06-01T11:36:00Z,25.0840,-81.0960,1.0,25.494,1111122 
COMPS,ioos:station:USF.COMPS:NFB:1,2009-06-01T11:42:00Z,25.0840,-81.0960,1.0,25.423,1111122 
COMPS,ioos:station:USF.COMPS:NFB:1,2009-06-01T11:48:00Z,25.0840,-81.0960,1.0,24.772,1111122 
COMPS,ioos:station:USF.COMPS:NFB:1,2009-06-01T11:54:00Z,25.0840,-81.0960,1.0,24.641,1111122 
COMPS,ioos:station:USF.COMPS:NFB:1,2009-06-01T12:00:00Z,25.0840,-81.0960,1.0,24.701,1111122 
COMPS,ioos:station:USF.COMPS:NFB:1,2009-06-01T12:06:00Z,25.0840,-81.0960,1.0,25.217,1111122 
COMPS,ioos:station:USF.COMPS:NFB:1,2009-06-01T12:12:00Z,25.0840,-81.0960,1.0,25.348,1111122 
COMPS,ioos:station:USF.COMPS:NFB:1,2009-06-01T12:18:00Z,25.0840,-81.0960,1.0,25.222,1111122 
COMPS,ioos:station:USF.COMPS:NFB:1,2009-06-01T12:24:00Z,25.0840,-81.0960,1.0,25.81,1111122 
COMPS,ioos:station:USF.COMPS:NFB:1,2009-06-01T12:30:00Z,25.0840,-81.0960,1.0,25.81,1111122 
COMPS,ioos:station:USF.COMPS:NFB:1,2009-06-01T12:36:00Z,25.0840,-81.0960,1.0,25.559,1111122 
COMPS,ioos:station:USF.COMPS:NFB:1,2009-06-01T12:42:00Z,25.0840,-81.0960,1.0,25.625,1111122 
COMPS,ioos:station:USF.COMPS:NFB:1,2009-06-01T12:48:00Z,25.0840,-81.0960,1.0,25.886,1111122 
COMPS,ioos:station:USF.COMPS:NFB:1,2009-06-01T12:54:00Z,25.0840,-81.0960,1.0,25.499,1111122 
COMPS,ioos:station:USF.COMPS:NFB:1,2009-06-01T13:00:00Z,25.0840,-81.0960,1.0,25.369,1111122 
COMPS,ioos:station:USF.COMPS:NFB:1,2009-06-01T13:06:00Z,25.0840,-81.0960,1.0,25.826,1111122 
COMPS,ioos:station:USF.COMPS:NFB:1,2009-06-01T13:12:00Z,25.0840,-81.0960,1.0,25.434,1111122 
COMPS,ioos:station:USF.COMPS:NFB:1,2009-06-01T13:18:00Z,25.0840,-81.0960,1.0,25.439,1111122 
COMPS,ioos:station:USF.COMPS:NFB:1,2009-06-01T13:24:00Z,25.0840,-81.0960,1.0,25.57,1111122 
COMPS,ioos:station:USF.COMPS:NFB:1,2009-06-01T13:30:00Z,25.0840,-81.0960,1.0,25.379,1111122 
COMPS,ioos:station:USF.COMPS:NFB:1,2009-06-01T13:36:00Z,25.0840,-81.0960,1.0,25.45,1111122 
COMPS,ioos:station:USF.COMPS:NFB:1,2009-06-01T13:42:00Z,25.0840,-81.0960,1.0,25.858,1111122 
COMPS,ioos:station:USF.COMPS:NFB:1,2009-06-01T13:48:00Z,25.0840,-81.0960,1.0,25.875,1111122 
COMPS,ioos:station:USF.COMPS:NFB:1,2009-06-01T13:54:00Z,25.0840,-81.0960,1.0,25.754,1111122 
COMPS,ioos:station:USF.COMPS:NFB:1,2009-06-01T14:00:00Z,25.0840,-81.0960,1.0,25.639,1111122 
COMPS,ioos:station:USF.COMPS:NFB:1,2009-06-01T14:06:00Z,25.0840,-81.0960,1.0,25.71,1111122 
COMPS,ioos:station:USF.COMPS:NFB:1,2009-06-01T14:12:00Z,25.0840,-81.0960,1.0,25.71,1111122 
COMPS,ioos:station:USF.COMPS:NFB:1,2009-06-01T14:18:00Z,25.0840,-81.0960,1.0,24.794,1111122 
COMPS,ioos:station:USF.COMPS:NFB:1,2009-06-01T14:24:00Z,25.0840,-81.0960,1.0,24.728,1111122 
COMPS,ioos:station:USF.COMPS:NFB:1,2009-06-01T14:30:00Z,25.0840,-81.0960,1.0,24.789,1111122 
COMPS,ioos:station:USF.COMPS:NFB:1,2009-06-01T14:36:00Z,25.0840,-81.0960,1.0,25.437,1111122 
COMPS,ioos:station:USF.COMPS:NFB:1,2009-06-01T14:42:00Z,25.0840,-81.0960,1.0,25.301,1111122 
COMPS,ioos:station:USF.COMPS:NFB:1,2009-06-01T14:48:00Z,25.0840,-81.0960,1.0,25.296,1111122 
COMPS,ioos:station:USF.COMPS:NFB:1,2009-06-01T14:54:00Z,25.0840,-81.0960,1.0,26.4,1111122 
COMPS,ioos:station:USF.COMPS:NFB:1,2009-06-01T15:00:00Z,25.0840,-81.0960,1.0,26.384,1111122 
COMPS,ioos:station:USF.COMPS:NFB:1,2009-06-01T15:06:00Z,25.0840,-81.0960,1.0,25.913,1111122 
COMPS,ioos:station:USF.COMPS:NFB:1,2009-06-01T15:12:00Z,25.0840,-81.0960,1.0,26.105,1111122 
COMPS,ioos:station:USF.COMPS:NFB:1,2009-06-01T15:18:00Z,25.0840,-81.0960,1.0,26.034,1111122 
COMPS,ioos:station:USF.COMPS:NFB:1,2009-06-01T15:24:00Z,25.0840,-81.0960,1.0,26.099,1111122 
COMPS,ioos:station:USF.COMPS:NFB:1,2009-06-01T15:30:00Z,25.0840,-81.0960,1.0,26.088,1111122 
COMPS,ioos:station:USF.COMPS:NFB:1,2009-06-01T15:36:00Z,25.0840,-81.0960,1.0,26.351,1111122 
COMPS,ioos:station:USF.COMPS:NFB:1,2009-06-01T15:42:00Z,25.0840,-81.0960,1.0,26.28,1111122 
COMPS,ioos:station:USF.COMPS:NFB:1,2009-06-01T15:48:00Z,25.0840,-81.0960,1.0,26.105,1111122 
COMPS,ioos:station:USF.COMPS:NFB:1,2009-06-01T15:54:00Z,25.0840,-81.0960,1.0,26.039,1111122 
COMPS,ioos:station:USF.COMPS:NFB:1,2009-06-01T16:00:00Z,25.0840,-81.0960,1.0,26.034,1111122 
COMPS,ioos:station:USF.COMPS:NFB:1,2009-06-01T16:06:00Z,25.0840,-81.0960,1.0,25.745,1111122 
COMPS,ioos:station:USF.COMPS:NFB:1,2009-06-01T16:12:00Z,25.0840,-81.0960,1.0,25.86,1111122 
COMPS,ioos:station:USF.COMPS:NFB:1,2009-06-01T16:18:00Z,25.0840,-81.0960,1.0,26.384,1111122 
COMPS,ioos:station:USF.COMPS:NFB:1,2009-06-01T16:24:00Z,25.0840,-81.0960,1.0,27.508,1111122 
COMPS,ioos:station:USF.COMPS:NFB:1,2009-06-01T16:30:00Z,25.0840,-81.0960,1.0,27.167,1111122 
COMPS,ioos:station:USF.COMPS:NFB:1,2009-06-01T16:36:00Z,25.0840,-81.0960,1.0,26.624,1111122 
COMPS,ioos:station:USF.COMPS:NFB:1,2009-06-01T16:42:00Z,25.0840,-81.0960,1.0,26.34,1111122 
COMPS,ioos:station:USF.COMPS:NFB:1,2009-06-01T16:48:00Z,25.0840,-81.0960,1.0,26.629,1111122 
COMPS,ioos:station:USF.COMPS:NFB:1,2009-06-01T16:54:00Z,25.0840,-81.0960,1.0,26.542,1111122 
COMPS,ioos:station:USF.COMPS:NFB:1,2009-06-01T17:00:00Z,25.0840,-81.0960,1.0,26.084,1111122 
COMPS,ioos:station:USF.COMPS:NFB:1,2009-06-01T17:06:00Z,25.0840,-81.0960,1.0,26.204,1111122 
COMPS,ioos:station:USF.COMPS:NFB:1,2009-06-01T17:12:00Z,25.0840,-81.0960,1.0,25.938,1111122 
COMPS,ioos:station:USF.COMPS:NFB:1,2009-06-01T17:18:00Z,25.0840,-81.0960,1.0,25.737,1111122 
COMPS,ioos:station:USF.COMPS:NFB:1,2009-06-01T17:24:00Z,25.0840,-81.0960,1.0,25.596,1111122 
COMPS,ioos:station:USF.COMPS:NFB:1,2009-06-01T17:30:00Z,25.0840,-81.0960,1.0,25.716,1111122 
COMPS,ioos:station:USF.COMPS:NFB:1,2009-06-01T17:36:00Z,25.0840,-81.0960,1.0,25.83,1111122 
COMPS,ioos:station:USF.COMPS:NFB:1,2009-06-01T17:42:00Z,25.0840,-81.0960,1.0,25.549,1111122 
COMPS,ioos:station:USF.COMPS:NFB:1,2009-06-01T17:48:00Z,25.0840,-81.0960,1.0,25.717,1111122 
COMPS,ioos:station:USF.COMPS:NFB:1,2009-06-01T17:54:00Z,25.0840,-81.0960,1.0,25.556,1111122 
COMPS,ioos:station:USF.COMPS:NFB:1,2009-06-01T18:00:00Z,25.0840,-81.0960,1.0,25.605,1111122 
COMPS,ioos:station:USF.COMPS:NFB:1,2009-06-01T18:06:00Z,25.0840,-81.0960,1.0,25.778,1111122 
COMPS,ioos:station:USF.COMPS:NFB:1,2009-06-01T18:12:00Z,25.0840,-81.0960,1.0,25.832,1111122 
COMPS,ioos:station:USF.COMPS:NFB:1,2009-06-01T18:18:00Z,25.0840,-81.0960,1.0,25.703,1111122 
COMPS,ioos:station:USF.COMPS:NFB:1,2009-06-01T18:24:00Z,25.0840,-81.0960,1.0,25.768,1111122 
COMPS,ioos:station:USF.COMPS:NFB:1,2009-06-01T18:30:00Z,25.0840,-81.0960,1.0,26.221,1111122 
COMPS,ioos:station:USF.COMPS:NFB:1,2009-06-01T18:36:00Z,25.0840,-81.0960,1.0,25.568,1111122 
COMPS,ioos:station:USF.COMPS:NFB:1,2009-06-01T18:42:00Z,25.0840,-81.0960,1.0,25.951,1111122 
COMPS,ioos:station:USF.COMPS:NFB:1,2009-06-01T18:48:00Z,25.0840,-81.0960,1.0,25.628,1111122 
COMPS,ioos:station:USF.COMPS:NFB:1,2009-06-01T18:54:00Z,25.0840,-81.0960,1.0,25.617,1111122 
COMPS,ioos:station:USF.COMPS:NFB:1,2009-06-01T19:00:00Z,25.0840,-81.0960,1.0,25.467,1111122 
COMPS,ioos:station:USF.COMPS:NFB:1,2009-06-01T19:06:00Z,25.0840,-81.0960,1.0,25.624,1111122 
COMPS,ioos:station:USF.COMPS:NFB:1,2009-06-01T19:12:00Z,25.0840,-81.0960,1.0,25.791,1111122 
COMPS,ioos:station:USF.COMPS:NFB:1,2009-06-01T19:18:00Z,25.0840,-81.0960,1.0,25.909,1111122 
COMPS,ioos:station:USF.COMPS:NFB:1,2009-06-01T19:24:00Z,25.0840,-81.0960,1.0,25.963,1111122 
COMPS,ioos:station:USF.COMPS:NFB:1,2009-06-01T19:30:00Z,25.0840,-81.0960,1.0,25.711,1111122 
COMPS,ioos:station:USF.COMPS:NFB:1,2009-06-01T19:36:00Z,25.0840,-81.0960,1.0,25.985,1111122 
COMPS,ioos:station:USF.COMPS:NFB:1,2009-06-01T19:42:00Z,25.0840,-81.0960,1.0,26.383,1111122 
COMPS,ioos:station:USF.COMPS:NFB:1,2009-06-01T19:48:00Z,25.0840,-81.0960,1.0,25.678,1111122 
COMPS,ioos:station:USF.COMPS:NFB:1,2009-06-01T19:54:00Z,25.0840,-81.0960,1.0,26.2,1111122 
COMPS,ioos:station:USF.COMPS:NFB:1,2009-06-01T21:00:00Z,25.0840,-81.0960,1.0,25.523,1111122 
COMPS,ioos:station:USF.COMPS:NFB:1,2009-06-01T21:06:00Z,25.0840,-81.0960,1.0,25.512,1111122 
COMPS,ioos:station:USF.COMPS:NFB:1,2009-06-01T21:12:00Z,25.0840,-81.0960,1.0,25.636,1111122 
COMPS,ioos:station:USF.COMPS:NFB:1,2009-06-01T21:18:00Z,25.0840,-81.0960,1.0,25.818,1111122 
COMPS,ioos:station:USF.COMPS:NFB:1,2009-06-01T21:24:00Z,25.0840,-81.0960,1.0,26.001,1111122 
COMPS,ioos:station:USF.COMPS:NFB:1,2009-06-01T21:30:00Z,25.0840,-81.0960,1.0,26.319,1111122 
COMPS,ioos:station:USF.COMPS:NFB:1,2009-06-01T21:36:00Z,25.0840,-81.0960,1.0,26.96,1111122 
COMPS,ioos:station:USF.COMPS:NFB:1,2009-06-01T21:42:00Z,25.0840,-81.0960,1.0,26.89,1111122 
COMPS,ioos:station:USF.COMPS:NFB:1,2009-06-01T21:48:00Z,25.0840,-81.0960,1.0,26.755,1111122 
COMPS,ioos:station:USF.COMPS:NFB:1,2009-06-01T21:54:00Z,25.0840,-81.0960,1.0,27.143,1111122 
COMPS,ioos:station:USF.COMPS:NFB:1,2009-06-01T22:00:00Z,25.0840,-81.0960,1.0,26.943,1111122 
COMPS,ioos:station:USF.COMPS:NFB:1,2009-06-01T22:06:00Z,25.0840,-81.0960,1.0,26.679,1111122 
COMPS,ioos:station:USF.COMPS:NFB:1,2009-06-01T22:12:00Z,25.0840,-81.0960,1.0,26.367,1111122 
COMPS,ioos:station:USF.COMPS:NFB:1,2009-06-01T22:18:00Z,25.0840,-81.0960,1.0,25.867,1111122 
COMPS,ioos:station:USF.COMPS:NFB:1,2009-06-01T22:24:00Z,25.0840,-81.0960,1.0,25.684,1111122 
COMPS,ioos:station:USF.COMPS:NFB:1,2009-06-01T22:30:00Z,25.0840,-81.0960,1.0,25.432,1111122 
COMPS,ioos:station:USF.COMPS:NFB:1,2009-06-01T22:36:00Z,25.0840,-81.0960,1.0,25.165,1111122 
COMPS,ioos:station:USF.COMPS:NFB:1,2009-06-01T22:42:00Z,25.0840,-81.0960,1.0,25.006,1111122 
COMPS,ioos:station:USF.COMPS:NFB:1,2009-06-01T22:48:00Z,25.0840,-81.0960,1.0,24.911,1111122 
COMPS,ioos:station:USF.COMPS:NFB:1,2009-06-01T22:54:00Z,25.0840,-81.0960,1.0,24.911,1111122 
COMPS,ioos:station:USF.COMPS:NFB:1,2009-06-01T23:00:00Z,25.0840,-81.0960,1.0,24.768,1111122 
COMPS,ioos:station:USF.COMPS:NFB:1,2009-06-01T23:06:00Z,25.0840,-81.0960,1.0,24.611,1111122 
COMPS,ioos:station:USF.COMPS:NFB:1,2009-06-01T23:12:00Z,25.0840,-81.0960,1.0,24.704,1111122 
COMPS,ioos:station:USF.COMPS:NFB:1,2009-06-01T23:18:00Z,25.0840,-81.0960,1.0,25.238,1111122 
COMPS,ioos:station:USF.COMPS:NFB:1,2009-06-01T23:24:00Z,25.0840,-81.0960,1.0,24.803,1111122 
COMPS,ioos:station:USF.COMPS:NFB:1,2009-06-01T23:30:00Z,25.0840,-81.0960,1.0,25.243,1111122 
COMPS,ioos:station:USF.COMPS:NFB:1,2009-06-01T23:36:00Z,25.0840,-81.0960,1.0,24.989,1111122 
COMPS,ioos:station:USF.COMPS:NFB:1,2009-06-01T23:42:00Z,25.0840,-81.0960,1.0,24.925,1111122 
COMPS,ioos:station:USF.COMPS:NFB:1,2009-06-01T23:48:00Z,25.0840,-81.0960,1.0,24.872,1111122 
COMPS,ioos:station:USF.COMPS:NFB:1,2009-06-01T23:54:00Z,25.0840,-81.0960,1.0,24.823,1111122 
COMPS,ioos:station:USF.COMPS:NFB:1,2009-06-02T00:00:00Z,25.0840,-81.0960,1.0,24.706,1111122 
COMPS,ioos:station:USF.COMPS:NFB:1,2009-06-02T00:06:00Z,25.0840,-81.0960,1.0,25.039,1111122 
COMPS,ioos:station:USF.COMPS:NFB:1,2009-06-02T00:12:00Z,25.0840,-81.0960,1.0,24.668,1111122 
COMPS,ioos:station:USF.COMPS:NFB:1,2009-06-02T00:18:00Z,25.0840,-81.0960,1.0,24.932,1111122 
COMPS,ioos:station:USF.COMPS:NFB:1,2009-06-02T00:24:00Z,25.0840,-81.0960,1.0,24.879,1111122 
COMPS,ioos:station:USF.COMPS:NFB:1,2009-06-02T00:30:00Z,25.0840,-81.0960,1.0,24.83,1111122 
COMPS,ioos:station:USF.COMPS:NFB:1,2009-06-02T00:36:00Z,25.0840,-81.0960,1.0,24.771,1111122 
COMPS,ioos:station:USF.COMPS:NFB:1,2009-06-02T00:42:00Z,25.0840,-81.0960,1.0,24.654,1111122 
COMPS,ioos:station:USF.COMPS:NFB:1,2009-06-02T00:48:00Z,25.0840,-81.0960,1.0,24.876,1111122 
COMPS,ioos:station:USF.COMPS:NFB:1,2009-06-02T00:54:00Z,25.0840,-81.0960,1.0,24.891,1111122 
COMPS,ioos:station:USF.COMPS:NFB:1,2009-06-02T01:00:00Z,25.0840,-81.0960,1.0,24.832,1111122 
COMPS,ioos:station:USF.COMPS:NFB:1,2009-06-02T01:06:00Z,25.0840,-81.0960,1.0,24.459,1111122 
COMPS,ioos:station:USF.COMPS:NFB:1,2009-06-02T01:12:00Z,25.0840,-81.0960,1.0,24.72,1111122 
COMPS,ioos:station:USF.COMPS:NFB:1,2009-06-02T01:18:00Z,25.0840,-81.0960,1.0,24.975,1111122 
COMPS,ioos:station:USF.COMPS:NFB:1,2009-06-02T01:24:00Z,25.0840,-81.0960,1.0,24.661,1111122 
COMPS,ioos:station:USF.COMPS:NFB:1,2009-06-02T01:30:00Z,25.0840,-81.0960,1.0,24.592,1111122 
COMPS,ioos:station:USF.COMPS:NFB:1,2009-06-02T01:36:00Z,25.0840,-81.0960,1.0,24.656,1111122 
COMPS,ioos:station:USF.COMPS:NFB:1,2009-06-02T01:42:00Z,25.0840,-81.0960,1.0,24.735,1111122 
COMPS,ioos:station:USF.COMPS:NFB:1,2009-06-02T01:48:00Z,25.0840,-81.0960,1.0,24.298,1111122 
COMPS,ioos:station:USF.COMPS:NFB:1,2009-06-02T01:54:00Z,25.0840,-81.0960,1.0,25.347,1111122 
COMPS,ioos:station:USF.COMPS:NFB:1,2009-06-02T02:00:00Z,25.0840,-81.0960,1.0,24.903,1111122 
COMPS,ioos:station:USF.COMPS:NFB:1,2009-06-02T02:06:00Z,25.0840,-81.0960,1.0,25.047,1111122 
COMPS,ioos:station:USF.COMPS:NFB:1,2009-06-02T02:12:00Z,25.0840,-81.0960,1.0,25.116,1111122 
COMPS,ioos:station:USF.COMPS:NFB:1,2009-06-02T02:18:00Z,25.0840,-81.0960,1.0,24.811,1111122 
COMPS,ioos:station:USF.COMPS:NFB:1,2009-06-02T02:24:00Z,25.0840,-81.0960,1.0,25.211,1111122 
COMPS,ioos:station:USF.COMPS:NFB:1,2009-06-02T02:30:00Z,25.0840,-81.0960,1.0,25.281,1111122 
COMPS,ioos:station:USF.COMPS:NFB:1,2009-06-02T02:36:00Z,25.0840,-81.0960,1.0,25.162,1111122 
COMPS,ioos:station:USF.COMPS:NFB:1,2009-06-02T02:42:00Z,25.0840,-81.0960,1.0,25.183,1111122 